Weather History for Iowa Falls, IA

Change the Weather History Date:

Sunday, July 14, 2013

  Actual Average Record
Temperature  
Mean Temperature 72 °F -  
Max Temperature 84 °F 86 °F 99 °F (1977)
Min Temperature 61 °F 63 °F 45 °F (1975)
Cooling Degree Days 8    
Growing Degree Days 22 (Base 50)    
Moisture  
Dew Point 62 °F    
Average Humidity 70    
Maximum Humidity 92    
Minimum Humidity 46    
Precipitation  
Precipitation 0.00 in - - ()
Sea Level Pressure  
Sea Level Pressure 30.16 in    
Wind  
Wind Speed 6 mph (SE)    
Max Wind Speed 14 mph    
Max Gust Speed 18 mph    
Visibility 10 miles    
Events      
Averages and records for this station are not official NWS values.
T = Trace of Precipitation, MM = Missing Value Source: NWS Daily Summary

Daily Weather History Graph

Daily Weather History Graph

Search for Another Location

Airport:

Trip Planner

Search our weather history database for the weather conditions in past years. The results will help you decide how hot, cold, wet, or windy it might be!

Date:

Astronomy

Jul. 14, 2013 Rise Set
Actual Time 5:48 AM CDT 8:48 PM CDT
Civil Twilight 5:14 AM CDT 9:22 PM CDT
Nautical Twilight 4:31 AM CDT 10:05 PM CDT
Astronomical Twilight 3:41 AM CDT 10:55 PM CDT
Moon 12:15 PM CDT (7/14) 11:51 PM CDT (7/14)
Length of Visible Light 16h 07m
Length of Day
15h 00m
Waxing Crescent, 35% of the Moon is Illuminated
Jul 14
Waxing Crescent
Jul 15
First Quarter
Jul 22
Full
Jul 29
Last Quarter
Aug 6
New

Hourly Weather History & Observations

Time (CDT) Temp. Heat Index Dew Point Humidity Pressure Visibility Wind Dir Wind Speed Gust Speed Precip Events Conditions
12:15 AM 68.0 °F - 61.7 °F 80% 30.10 in 10.0 mi SE 6.9 mph - N/A   Scattered Clouds
12:35 AM 67.6 °F - 61.7 °F 81% 30.11 in 10.0 mi ESE 5.8 mph - N/A   Clear
12:55 AM 67.5 °F - 61.9 °F 82% 30.12 in 10.0 mi SE 6.9 mph - N/A   Clear
1:15 AM 67.1 °F - 62.1 °F 84% 30.12 in 10.0 mi ESE 5.8 mph - N/A   Mostly Cloudy
1:35 AM 66.9 °F - 62.1 °F 84% 30.12 in 10.0 mi ESE 4.6 mph - N/A   Mostly Cloudy
1:55 AM 65.5 °F - 61.7 °F 88% 30.12 in 10.0 mi ESE 5.8 mph - N/A   Clear
2:15 AM 64.2 °F - 61.3 °F 90% 30.12 in 10.0 mi ESE 5.8 mph - N/A   Clear
2:35 AM 64.4 °F - 61.2 °F 89% 30.12 in 10.0 mi ESE 4.6 mph - N/A   Clear
2:55 AM 64.4 °F - 61.0 °F 89% 30.12 in 10.0 mi ESE 3.5 mph - N/A   Clear
3:15 AM 64.0 °F - 60.8 °F 89% 30.12 in 10.0 mi ESE 4.6 mph - N/A   Clear
3:35 AM 63.1 °F - 60.3 °F 90% 30.12 in 10.0 mi ESE 4.6 mph - N/A   Scattered Clouds
3:55 AM 63.1 °F - 60.8 °F 92% 30.11 in 10.0 mi ESE 4.6 mph - N/A   Mostly Cloudy
4:15 AM 63.0 °F - 60.4 °F 91% 30.11 in 10.0 mi ESE 5.8 mph - N/A   Scattered Clouds
4:35 AM 62.8 °F - 60.4 °F 92% 30.11 in 10.0 mi ESE 5.8 mph - N/A   Scattered Clouds
4:55 AM 63.7 °F - 60.6 °F 90% 30.11 in 10.0 mi SE 4.6 mph - N/A   Clear
5:15 AM 63.5 °F - 60.1 °F 89% 30.11 in 10.0 mi SE 5.8 mph - N/A   Clear
5:35 AM 63.0 °F - 59.9 °F 90% 30.12 in 10.0 mi SE 4.6 mph - N/A   Clear
5:55 AM 62.1 °F - 59.2 °F 90% 30.13 in 10.0 mi Calm Calm - N/A   Clear
6:15 AM 61.7 °F - 59.4 °F 92% 30.13 in 10.0 mi ESE 5.8 mph - N/A   Clear
6:35 AM 62.2 °F - 59.4 °F 90% 30.14 in 10.0 mi SE 3.5 mph - N/A   Clear
6:55 AM 63.0 °F - 59.9 °F 90% 30.15 in 10.0 mi ESE 3.5 mph - N/A   Clear
7:15 AM 64.0 °F - 60.4 °F 88% 30.15 in 10.0 mi SE 4.6 mph - N/A   Clear
7:35 AM 65.7 °F - 60.8 °F 84% 30.15 in 10.0 mi SE 5.8 mph - N/A   Clear
7:55 AM 67.3 °F - 61.3 °F 81% 30.15 in 10.0 mi SE 5.8 mph - N/A   Clear
8:15 AM 68.9 °F - 61.9 °F 78% 30.15 in 10.0 mi SE 6.9 mph - N/A   Clear
8:35 AM 70.7 °F - 62.8 °F 76% 30.16 in 10.0 mi SE 5.8 mph - N/A   Clear
8:55 AM 71.4 °F - 63.1 °F 75% 30.17 in 10.0 mi SSE 9.2 mph - N/A   Clear
9:15 AM 72.5 °F - 63.3 °F 73% 30.16 in 10.0 mi SSE 9.2 mph - N/A   Clear
9:35 AM 74.3 °F - 63.7 °F 69% 30.17 in 10.0 mi SE 8.1 mph - N/A   Clear
9:55 AM 75.2 °F - 63.9 °F 68% 30.17 in 10.0 mi SSE 10.4 mph - N/A   Clear
10:15 AM 76.3 °F - 64.2 °F 66% 30.17 in 10.0 mi SSE 9.2 mph - N/A   Clear
10:35 AM 77.0 °F - 64.2 °F 65% 30.18 in 10.0 mi SSE 4.6 mph - N/A   Clear
10:55 AM 77.9 °F - 64.4 °F 63% 30.18 in 10.0 mi SE 8.1 mph - N/A   Scattered Clouds
11:15 AM 78.6 °F - 64.4 °F 62% 30.18 in 10.0 mi ESE 8.1 mph - N/A   Scattered Clouds
11:35 AM 79.3 °F - 63.3 °F 58% 30.18 in 10.0 mi SE 9.2 mph - N/A   Scattered Clouds
11:55 AM 80.1 °F 81.5 °F 63.0 °F 56% 30.18 in 10.0 mi ESE 9.2 mph - N/A   Scattered Clouds
12:15 PM 79.9 °F - 62.2 °F 55% 30.18 in 10.0 mi SE 10.4 mph - N/A   Clear
12:35 PM 80.8 °F 82.1 °F 63.1 °F 55% 30.18 in 10.0 mi ESE 8.1 mph - N/A   Clear
12:55 PM 80.8 °F 81.8 °F 61.5 °F 52% 30.18 in 10.0 mi SE 9.2 mph - N/A   Scattered Clouds
1:15 PM 81.5 °F 82.5 °F 62.2 °F 52% 30.17 in 10.0 mi SSE 10.4 mph 17.3 mph N/A   Scattered Clouds
1:35 PM 81.9 °F 82.9 °F 62.6 °F 52% 30.17 in 10.0 mi SE 6.9 mph 16.1 mph N/A   Scattered Clouds
1:55 PM 82.9 °F 84.0 °F 63.0 °F 51% 30.17 in 10.0 mi SSE 6.9 mph - N/A   Scattered Clouds
2:15 PM 82.8 °F 83.3 °F 61.3 °F 48% 30.17 in 10.0 mi SE 11.5 mph - N/A   Scattered Clouds
2:35 PM 81.9 °F 82.9 °F 62.8 °F 52% 30.16 in 10.0 mi ESE 10.4 mph 16.1 mph N/A   Scattered Clouds
2:55 PM 83.3 °F 83.9 °F 61.5 °F 48% 30.16 in 10.0 mi SE 10.4 mph 17.3 mph N/A   Scattered Clouds
3:15 PM 84.0 °F 84.5 °F 61.7 °F 47% 30.16 in 10.0 mi SE 8.1 mph 17.3 mph N/A   Scattered Clouds
3:35 PM 83.5 °F 83.7 °F 61.0 °F 46% 30.16 in 10.0 mi SE 11.5 mph - N/A   Scattered Clouds
3:55 PM 84.2 °F 84.6 °F 61.3 °F 46% 30.16 in 10.0 mi SE 13.8 mph 18.4 mph N/A   Scattered Clouds
4:15 PM 81.9 °F 82.6 °F 61.7 °F 50% 30.16 in 10.0 mi ESE 9.2 mph 16.1 mph N/A   Scattered Clouds
4:35 PM 82.0 °F 83.0 °F 62.1 °F 51% 30.16 in 10.0 mi SE 8.1 mph - N/A   Scattered Clouds
4:55 PM 83.3 °F 83.9 °F 61.9 °F 48% 30.15 in 10.0 mi SE 9.2 mph - N/A   Mostly Cloudy
5:15 PM 81.3 °F 82.1 °F 61.2 °F 50% 30.15 in 10.0 mi SE 9.2 mph - N/A   Scattered Clouds
5:35 PM 80.1 °F 81.1 °F 61.3 °F 53% 30.16 in 10.0 mi SE 6.9 mph - N/A   Scattered Clouds
5:55 PM 82.2 °F 82.9 °F 61.2 °F 49% 30.15 in 10.0 mi SE 6.9 mph - N/A   Scattered Clouds
6:15 PM 82.8 °F 83.6 °F 62.6 °F 50% 30.15 in 10.0 mi ESE 10.4 mph - N/A   Mostly Cloudy
6:35 PM 81.7 °F 82.9 °F 63.1 °F 53% 30.15 in 10.0 mi ESE 4.6 mph - N/A   Mostly Cloudy
6:55 PM 81.9 °F 82.9 °F 62.4 °F 52% 30.16 in 10.0 mi SE 8.1 mph - N/A   Mostly Cloudy
7:15 PM 81.0 °F 81.9 °F 62.1 °F 52% 30.16 in 10.0 mi SE 8.1 mph - N/A   Scattered Clouds
7:35 PM 80.1 °F 81.2 °F 62.2 °F 54% 30.16 in 10.0 mi SE 6.9 mph - N/A   Clear
7:55 PM 79.7 °F - 62.8 °F 56% 30.16 in 10.0 mi SE 5.8 mph - N/A   Scattered Clouds
8:15 PM 78.1 °F - 62.8 °F 59% 30.16 in 10.0 mi SE 4.6 mph - N/A   Scattered Clouds
8:35 PM 76.1 °F - 63.7 °F 65% 30.17 in 10.0 mi SE 3.5 mph - N/A   Scattered Clouds
8:55 PM 75.0 °F - 64.4 °F 69% 30.17 in 10.0 mi SE 5.8 mph - N/A   Scattered Clouds
9:15 PM 72.7 °F - 64.4 °F 75% 30.17 in 10.0 mi ESE 5.8 mph - N/A   Scattered Clouds
9:35 PM 70.9 °F - 64.4 °F 80% 30.18 in 10.0 mi ESE 4.6 mph - N/A   Scattered Clouds
9:55 PM 70.3 °F - 64.4 °F 81% 30.19 in 10.0 mi ESE 5.8 mph - N/A   Clear
10:15 PM 71.2 °F - 63.9 °F 77% 30.20 in 10.0 mi ESE 3.5 mph - N/A   Clear
10:35 PM 70.9 °F - 63.5 °F 77% 30.21 in 10.0 mi Calm Calm - N/A   Clear
10:55 PM 69.8 °F - 63.5 °F 80% 30.21 in 10.0 mi Calm Calm - N/A   Clear
11:15 PM 67.6 °F - 62.6 °F 84% 30.21 in 10.0 mi Calm Calm - N/A   Clear
11:35 PM 69.1 °F - 63.0 °F 81% 30.22 in 10.0 mi Calm Calm - N/A   Clear
11:55 PM 67.3 °F - 62.2 °F 84% 30.22 in 10.0 mi East 3.5 mph - N/A   Clear